Tracking 18823 objects as of 24-October-2017
HD Live streaming from Space Station
objects crossing your sky now

ITAMSAT

Track ITAMSAT now!
10-day predictions
ITAMSAT is classified as:


NORAD ID: 22826
Int'l Code: 1993-061D
Perigee: 791.9 km
Apogee: 803.6 km
Inclination: 98.8 °
Period: 100.7 minutes
Semi major axis: 7168 km
RCS: 0.1649 m2 (medium)
Launch date: September 26, 1993
Source: Portugal (POR)
Launch site: FRENCH GUIANA (FRGUI)
Uplink (MHz): 145.875-145.950
Downlink (MHz): 435.822/435.867
Beacon (MHz): 435.791
Mode: 1200bps JAS
Call sign: ITMSAT-11 -12
Status: Active


ITAMSAT is an Italian microsatellite that was launched along with SPOT 3. It is intended to receive and retransmit amateur radio communications. Initial orbital parameters are period 100.9 min, apogee 823 km, perigee 799 km, and inclination 98.6 deg.
aabbcc
Your satellite tracking list
Your tracking list is empty





NASA's NSSDC Master Catalog

Two Line Element Set (TLE):
1 22826U 93061D   17296.86811952 +.00000024 +00000-0 +26827-4 0  9999
2 22826 098.8239 264.2035 0008149 311.1572 048.8906 14.30340478255725
Source of the keplerian elements: AFSPC